Main page
METAR-TAF:

METAR-TAF

Airports :

Paulo Afonso Airport

Paulo Afonso, Bahia, Brazil

latitude: 09-24S, longitude: 038-13W, elevation: 253 m

Current weather observation

The report was made 32 minutes ago, at 15:00 UTC
Wind 6 kt from the East/Northeast
Temperature 33°C
Humidity 46%
Pressure 1012 hPa
Visibility 10 km or more
Scattered clouds at a height of 2100 ft
Broken clouds at a height of 10000 ft

METAR: SBUF 211500Z 07006KT 9999 SCT021 BKN100 33/20 Q1012

Time: 12:32 (15:32 UTC)


TAF: missing

Weather observations and forecasts of more than 4000 airports (METAR and TAF reports).

The available stations are represented by yellow and red dots on the map.

Hover mouse over dot to see the name of the station.

Then click to see weather observations and forecasts.

To change the map : click on the green buttons with a black cross to zoom in, on the green button with a dash to zoom out, or on the green arrows for adjacent maps.


METAR-TAF: